Weather History for Great Falls, MT

Change the Weather History Date:

Tuesday, November 5, 2013

  Actual Average Record
Temperature  
Mean Temperature 30 °F 38 °F  
Max Temperature 40 °F 48 °F 76 °F (1975)
Min Temperature 19 °F 27 °F -10 °F (2003)
Degree Days  
Heating Degree Days 35 27  
Month to date heating degree days 152 132  
Since 1 July heating degree days 1023 1152  
Cooling Degree Days 0 0  
Month to date cooling degree days 0 0  
Year to date cooling degree days 449 298  
Moisture  
Dew Point 18 °F    
Average Humidity 63    
Maximum Humidity 91    
Minimum Humidity 34    
Precipitation  
Precipitation 0.00 in 0.02 in 1.00 in (1918)
Month to date precipitation 0.01 0.10  
Year to date precipitation 10.67 13.71  
Snow  
Snow 0.00 in 0.20 in 4.50 in (1991)
Month to date snowfall 0.6 1.0  
Since 1 July snowfall 7.5 6.6  
Since 1 September snowfall 7.5 6.3  
Snow Depth 0.00 in    
Sea Level Pressure  
Sea Level Pressure 30.12 in    
Wind  
Wind Speed 14 mph (SW)    
Max Wind Speed 24 mph    
Max Gust Speed 31 mph    
Visibility 10 miles    
Events      
T = Trace of Precipitation, MM = Missing Value Source: NWS Daily Summary

Daily Weather History Graph

Daily Weather History Graph

Search for Another Location

Airport:

Trip Planner

Search our weather history database for the weather conditions in past years. The results will help you decide how hot, cold, wet, or windy it might be!

Date:

Astronomy

Nov. 05, 2013 Rise Set
Actual Time 7:15 AM MST 5:01 PM MST
Civil Twilight 6:43 AM MST 5:34 PM MST
Nautical Twilight 6:06 AM MST 6:10 PM MST
Astronomical Twilight 5:30 AM MST 6:46 PM MST
Moon 9:40 AM MST (11/5) 7:00 PM MST (11/5)
Length of Visible Light 10h 51m
Length of Day
9h 46m
Waxing Crescent, 7% of the Moon is Illuminated
Nov 5
Waxing Crescent
Nov 9
First Quarter
Nov 17
Full
Nov 25
Last Quarter
Dec 2
New

Hourly Weather History & Observations

Time (MST) Temp. Windchill Dew Point Humidity Pressure Visibility Wind Dir Wind Speed Gust Speed Precip Events Conditions
12:53 AM 21.0 °F 11.4 °F 18.0 °F 88% 30.19 in 10.0 mi SSW 8.1 mph - N/A   Clear
1:53 AM 21.0 °F 9.9 °F 18.0 °F 88% 30.17 in 10.0 mi SSW 10.4 mph - N/A   Clear
2:53 AM 21.9 °F 10.4 °F 18.0 °F 85% 30.16 in 10.0 mi SSW 11.5 mph - N/A   Clear
3:53 AM 21.0 °F 9.3 °F 17.1 °F 85% 30.17 in 10.0 mi SSW 11.5 mph - N/A   Clear
4:53 AM 21.0 °F 9.3 °F 17.1 °F 85% 30.17 in 10.0 mi SSW 11.5 mph - N/A   Clear
5:53 AM 21.9 °F 9.8 °F 17.1 °F 82% 30.18 in 10.0 mi SSW 12.7 mph - N/A   Clear
6:53 AM 21.9 °F 9.2 °F 16.0 °F 78% 30.18 in 10.0 mi SSW 13.8 mph - N/A   Clear
7:53 AM 24.1 °F 12.0 °F 16.0 °F 71% 30.19 in 10.0 mi SW 13.8 mph - N/A   Clear
8:53 AM 28.0 °F 17.0 °F 18.0 °F 66% 30.19 in 10.0 mi SSW 13.8 mph - N/A   Clear
9:53 AM 32.0 °F 20.1 °F 18.0 °F 56% 30.17 in 10.0 mi SW 19.6 mph 24.2 mph N/A   Clear
10:53 AM 34.0 °F 22.4 °F 16.0 °F 48% 30.17 in 10.0 mi SW 20.7 mph 26.5 mph N/A   Clear
11:53 AM 36.0 °F 25.3 °F 15.1 °F 43% 30.14 in 10.0 mi SW 19.6 mph 25.3 mph N/A   Clear
12:57 PM 37.4 °F 27.8 °F 14.0 °F 38% 29.97 in 10.0 mi SSW 17.3 mph - N/A   Clear
1:29 PM 39.2 °F 29.6 °F 15.8 °F 39% 29.96 in 10.0 mi SW 19.6 mph 25.3 mph N/A   Clear
1:53 PM 39.9 °F 31.1 °F 14.0 °F 35% 30.07 in 10.0 mi WSW 17.3 mph 25.3 mph N/A   Clear
2:53 PM 39.9 °F 31.1 °F 14.0 °F 35% 30.07 in 10.0 mi WSW 17.3 mph 26.5 mph N/A   Clear
3:53 PM 37.0 °F 27.4 °F 16.0 °F 42% 30.08 in 10.0 mi SW 17.3 mph 25.3 mph N/A   Clear
4:53 PM 35.1 °F 26.9 °F 17.1 °F 48% 30.08 in 10.0 mi SW 11.5 mph - N/A   Clear
5:53 PM 35.1 °F 26.9 °F 18.0 °F 50% 30.09 in 10.0 mi SW 11.5 mph - N/A   Clear
6:53 PM 34.0 °F 24.6 °F 19.9 °F 56% 30.09 in 10.0 mi SW 13.8 mph 20.7 mph N/A   Clear
7:53 PM 35.1 °F 24.8 °F 21.0 °F 57% 30.09 in 10.0 mi SW 17.3 mph - N/A   Clear
8:53 PM 33.1 °F 24.4 °F 21.9 °F 64% 30.10 in 10.0 mi SW 11.5 mph - N/A   Clear
9:53 PM 33.1 °F 23.4 °F 23.0 °F 66% 30.09 in 10.0 mi SW 13.8 mph - N/A   Clear
10:53 PM 35.1 °F 25.2 °F 24.1 °F 64% 30.08 in 10.0 mi SW 16.1 mph - N/A   Scattered Clouds
11:53 PM 37.0 °F 27.7 °F 25.0 °F 62% 30.06 in 10.0 mi SW 16.1 mph - N/A   Overcast